IRIDIUM 6 [+]

Last updated on Tue Dec 19 2017 00:19:12 GMT+0000 (Coordinated Universal Time)

1 24794U 97020C 17352.44895943 .02749462 -15952-5 90895-3 0 9994 2 24794 86.3697 240.1321 0193292 111.6443 250.5552 15.94959587 79839

Satellite not in orbit

IRIDIUM 6 [+]